Location: Arrodets-la-Barthe
(43.0306°N, 0.2829°E)
Time: 18:47:54
(UTC+00:00)

Cosmos 2219 Rocket - Pass Details

Date: 24 October 2021
Orbit: 826 x 848 km, 71.0° (Epoch: 01 December)

Event Time Altitude Azimuth Distance (km) Brightness Sun altitude
Rises 19:51:58 0° 211° (SSW) 3,352 5.5 -31.6°
Reaches altitude 10° 19:54:24 10° 214° (SSW) 2,424 4.8 -32.0°
Enters shadow 19:57:16 31° 223° (SW) 1,411 3.5 -32.5°
